Skip Page Navigation
NASA JPL Caltech
NASA Logo - Jet Propulsion Laboratory + View the NASA Portal
+ Center for Near-Earth Object Studies
JPL Home Earth Solar System Stars & Galaxies Technology
JPL Solar System Dynamics
BODIES ORBITS EPHEMERIDES TOOLS PHYSICAL DATA DISCOVERY FAQ SITE MAP
JPL Small-Body Database Browser
Search: [ help ]  
357421 (2003 YF29)
Classification: Main-belt Asteroid          SPK-ID: 2357421
Ephemeris | Orbit Diagram | Orbital Elements | Mission Design | Physical Parameters | Discovery Circumstances | Close-Approach Data ]

[ show orbit diagram ]
Orbital Elements at Epoch 2459000.5 (2020-May-31.0) TDB
Reference: JPL 7 (heliocentric ecliptic J2000)
 Element Value Uncertainty (1-sigma)   Units 
e .3024678189548604 8.1672e-08  
a 2.667157682359012 2.3952e-08 au
q 1.860428315367181 2.3126e-07 au
i 5.988413948307593 5.1525e-06 deg
node 92.70780007084932 0.00011429 deg
peri 337.0201686727585 0.00011757 deg
M 292.7421852563897 2.2e-05 deg
tp 2459297.743055291391
(2021-Mar-24.24305529)
9.712e-05 TDB
period 1591.004707970636
4.36
2.1432e-05
5.868e-08
d
yr
n .2262721148444548 3.048e-09 deg/d
Q 3.473887049350842 3.1197e-08 au
  Orbit Determination Parameters
   # obs. used (total)      125  
   data-arc span      6153 days (16.85 yr)  
   first obs. used      2003-12-17  
   last obs. used      2020-10-21  
   planetary ephem.      DE431  
   SB-pert. ephem.      SB431-N16  
   condition code      0  
   norm. resid. RMS      .46894  
   source      ORB  
   producer      Otto Matic  
   solution date      2020-Nov-11 16:27:22  

Additional Information
 Earth MOID = .876633 au 
 Jupiter MOID = 1.84462 au 
 T_jup = 3.308 
[ show covariance matrix ]

Ephemeris | Orbit Diagram | Orbital Elements | Mission Design | Physical Parameters | Discovery Circumstances | Close-Approach Data ]

Physical Parameter Table
Parameter Symbol Value Units Sigma Reference Notes
absolute magnitude H 17.8   n/a MPO397318  

357421 (2003 YF29)          Discovered 2003-Dec-17 by Spacewatch at Kitt Peak
Reference: 20130327/Numbers.arcLast Updated: 2013-03-29

[ hide close-approach data ]
Close-Approach Data   ...sorted by Date/Time (TDB)
Date/Time (TDB) Time Uncertainty
(days_HH:MM)
Body Nominal Distance (au) Minimum Distance (au) Maximum Distance (au) V-relative (km/s) V-infinity (km/s) JD (TDB) Time Uncertainty (minutes) Semi-major axis (km) Semi-minor axis (km) range-LOV angle (deg) N-sigma BP Orbit Ref. Reference Modified
1936-May-22 04:28 00:03 Jupiter 1.85032806664813 1.85032727844758 1.85032885486446 1.23209003893213 0.77621401834869 2428310.686259628 2.72716075840191 655.242011459146 427.793300648508 -35.268111440203 1150530.7294109 T 7 CATAB v2.0f-lin.ifort 2020-Nov-11 16:27:23 2020-Nov-11 16:27
1984-Oct-03 13:06 00:01 Jupiter 1.97834559865927 1.97834398019542 1.97834721713245 1.67487616913298 1.39603595996925 2445977.045803243 1.2446697115418 324.577037386006 148.763870981347 -84.6851899428225 752937.363771898 T 7 CATAB v2.0f-lin.ifort 2020-Nov-11 16:27:23 2020-Nov-11 16:27
2019-Jan-21 07:24 < 00:01 Jupiter 1.87571946084409 1.87571889272275 1.87572002897801 1.1842851713859 0.706673355436616 2458504.808501777 0.683619256260462 903.199978112306 475.727899534057 -20.2605242368118 1050353.6910066 T 7 CATAB v2.0f-lin.ifort 2020-Nov-11 16:27:23 2020-Nov-11 16:27
2067-May-28 22:49 00:02 Jupiter 1.87665443597872 1.8766528455555 1.87665602648825 1.3776741123525 0.997643113962158 2476164.450927339 2.10222566947486 878.644849326651 312.284655496588 -67.2812080660208 969051.679446999 T 7 CATAB v2.0f-lin.ifort 2020-Nov-11 16:27:23 2020-Nov-11 16:27
2101-Sep-19 14:56 00:03 Jupiter 1.96534251384001 1.96534076739397 1.96534426030469 1.23687452083548 0.817251121271377 2488696.122036083 3.31347575516404 567.686081771933 498.739412439289 -20.3826532029698 1009602.19421157 T 7 CATAB v2.0f-lin.ifort 2020-Nov-11 16:27:23 2020-Nov-11 16:27
2150-Jan-26 10:25 00:05 Jupiter 1.83514390322723 1.83514302163053 1.83514478496538 1.25792800702373 0.811954407159901 2506356.934057994 4.88488676055024 1308.8257225885 468.12524346644 -62.76194472554 1101925.31664831 T 7 CATAB v2.0f-lin.ifort 2020-Nov-11 16:27:23 2020-Nov-11 16:27
2198-Jun-09 19:14 00:07 Jupiter 1.97566758798864 1.97566326885004 1.97567190726302 1.67089516033292 1.39084008898424 2524023.301677492 6.94692015148756 1057.2033678393 174.57009884776 -74.4488806630927 661530.524708052 T 7 CATAB v2.0f-lin.ifort 2020-Nov-11 16:27:23 2020-Nov-11 16:27
Ephemeris | Orbit Diagram | Orbital Elements | Mission Design | Physical Parameters | Discovery Circumstances | Close-Approach Data ]
ABOUT SSD CREDITS/AWARDS PRIVACY/COPYRIGHT GLOSSARY LINKS
FirstGov 2020-Nov-29 09:23 UT
(server date/time)  
NASA Home Page
Site Manager:   Ryan S. Park
Webmaster  Alan B. Chamberlin